SCP
0 0 0 0 0 0 0 0 0 0 0 0 0 0 0 0 0 0 0 0 0 0 0 0 0 0 -0 -0 -0 0 0 0 0 0 0 0 0 0 0 0 0 0 0
0 0 0 0 0 0 0 0 0 0 0 0 0 0 0 0 0 0 0 0 0 0 0 0 0 0 0 0 0 0 0 0 0 0 0 0 0 0 0 0 0 0 0
1 0 0 0 0 0 0 -0 -0 0 0 0 0 0 0 0 0 0 0 0 0 0 0 0 0 0 0 0 0 0 0 0 0 0 0 0 0 0 0 0 0 0 0
1 0 0 0 0 0 0 0 0 0 0 0 0 0 0 0 0 0 0 0 0 0 0 0 0 0 0 0 0 0 0 0 0 0 0 0 0 0 0 0 0 0 0
0 0 0 0 0 0 0 0 0 0 0 0 0 0 0 0 0 0 0 0 0 0 0 0 0 0 0 0 0 0 0 0 0 0 0 0 0 0 0 -0 -0 -0 0
0 0 0 0 0 0 0 0 0 0 0 0 0 0 0 0 0 0 0 0 0 0 0 0 0 0 0 0 0 0 0 0 0 0 0 0 0 0 0 0 -0 -0 0
0 0 0 0 0 0 0 0 0 0 0 0 0 0 0 0 0 0 0 0 0 0 0 0 0 0 0 0 0 0 0 0 0 0 0 0 0 0 0 0 0 -0 0
0 0 0 0 0 0 0 0 0 0 0 0 0 0 0 0 0 0 0 0 0 0 0 0 0 0 0 0 0 0 0 0 0 0 0 0 0 0 0 0 0 0 0
0 0 0 0 0 0 0 0 0 0 0 0 0 0 0 0 0 0 0 0 0 0 0 0 0 0 0 0 0 0 0 0 0 0 0 0 0 0 0 -0 -0 0 0
0 0 0 0 0 0 0 0 0 0 0 0 0 0 0 0 0 0 0 0 0 0 0 0 0 0 0 0 0 0 0 0 0 0 0 0 0 -0 0 0 0 0 0
0 0 0 0 0 0 0 0 0 0 0 0 0 0 0 0 0 0 0 0 0 0 0 0 0 0 0 0 0 0 0 0 0 0 0 0 0 0 0 0 0 0 0
0 0 0 0 -0 -0 -0 0 0 0 0 0 0 0 0 0 0 0 0 0 0 0 0 0 0 0 0 0 0 -0 -0 -0 0 0 0 0 0 0 0 0 -0 0 0
0 0 0 0 -0 -0 0 0 0 0 0 0 0 0 0 0 0 0 0 0 0 0 0 0 0 0 0 0 0 0 -0 -0 -0 -0 -0 0 0 0 0 -0 -0 0 0
0 0 0 0 0 0 0 0 0 0 0 0 0 0 0 0 0 0 0 0 0 0 0 0 0 0 0 0 0 0 0 -0 -0 -0 -0 -0 0 -0 -0 -0 -0 0 0
0 0 0 0 0 0 0 0 0 0 0 0 0 0 0 0 0 0 0 0 0 0 0 0 0 0 0 0 0 0 0 0 -0 0 -0 -0 -0 -0 -0 -0 0 0 0
0 0 0 0 0 0 0 0 0 0 0 0 0 0 0 0 0 0 0 0 0 0 0 0 0 0 0 -0 -0 0 0 0 0 -0 -0 0 -0 0 -0 0 0 0 0
0 0 0 0 0 0 0 0 0 0 0 0 0 0 0 0 0 0 0 0 0 0 0 0 0 0 0 0 -0 0 0 0 0 0 0 0 -0 0 0 0 0 0 0
0 0 0 0 0 0 0 0 0 0 0 0 0 0 0 0 0 0 0 0 0 0 0 0 0 0 0 0 0 0 0 0 0 -0 0 -0 0 0 0 0 0 0 0
0 0 0 0 0 0 0 0 0 0 0 0 0 0 0 0 0 0 0 0 0 0 0 0 0 0 0 0 0 0 0 0 0 0 0 -0 0 0 0 0 0 0 0
0 0 0 0 0 0 0 0 0 0 0 0 0 0 0 0 0 0 0 0 0 0 0 0 0 0 0 0 -0 0 0 0 -0 -0 0 0 0 0 0 0 0 0 0
0 0 0 0 0 0 0 0 0 0 0 0 0 0 0 0 0 0 0 0 0 0 0 0 0 0 0 0 -0 0 -0 0 0 0 0 0 0 0 0 0 0 0 0
0 0 0 0 0 0 0 0 0 0 0 0 0 0 0 0 0 0 0 0 0 0 0 0 0 0 0 0 0 0 -0 0 0 0 0 0 0 0 0 0 0 0 0
0 0 0 0 0 0 0 0 0 0 -0 0 0 0 0 0 0 0 0 0 -0 0 0 0 0 0 0 0 0 0 0 0 0 0 0 0 0 0 0 0 0 0 0
0 0 0 0 0 0 0 0 0 -0 -0 0 0 0 0 -0 -0 -0 -0 -0 0 0 0 0 0 0 0 0 0 0 0 0 0 0 0 0 0 0 0 0 0 0 0
0 0 0 0 0 0 0 0 -0 -0 0 0 -0 -0 -0 -0 -0 -0 -0 0 0 0 0 0 0 0 0 0 0 0 0 0 0 0 0 0 0 0 0 0 0 0 0
0 0 0 0 0 0 0 0 0 -0 -0 -0 -0 -0 -0 0 0 0 0 0 0 0 0 0 0 0 0 0 0 0 0 0 0 0 0 0 0 0 0 0 0 0 0
Wind_Speed_500mb
63 74 68 59 49 39 25 4 6 12 10 9 9 9 11 21 32 44 50 46 50 58 63 73 80 77 68 63 58 57 56 55 52 58 59 59 34 39 26 49 52 37 36
59 64 59 53 44 34 23 7 7 5 8 9 11 11 22 33 41 52 55 51 53 59 64 75 82 72 65 57 50 48 50 48 45 46 48 32 45 22 55 38 30 33 42
63 64 59 49 42 25 11 8 1 11 12 9 13 24 29 37 52 57 50 49 51 57 66 74 70 62 54 48 44 40 38 41 40 35 31 23 16 56 44 38 33 39 44
49 56 53 48 27 7 13 17 10 16 12 17 25 33 43 50 47 45 46 45 50 61 69 66 63 58 49 46 40 36 39 37 40 38 29 34 38 39 34 28 45 42 40
49 40 30 15 17 7 18 19 19 15 19 23 28 36 41 42 43 42 43 49 56 62 66 62 60 50 47 44 40 41 39 37 37 33 33 37 35 33 48 42 64 63 45
34 26 15 4 12 19 33 22 18 18 22 24 32 39 40 40 40 43 49 54 56 60 61 55 45 43 43 41 42 40 36 35 32 31 29 28 31 37 37 43 60 46 47
31 20 10 5 14 18 23 24 23 23 29 35 37 38 36 37 42 48 52 49 54 57 50 46 41 36 37 37 38 34 32 31 30 27 28 28 27 31 35 38 48 40 53
22 26 30 30 24 17 10 8 14 18 24 27 30 34 38 44 48 51 46 45 44 42 43 39 29 27 28 27 31 32 30 30 30 28 27 29 27 33 35 34 40 42 35
42 43 35 25 15 4 7 16 28 37 36 37 41 44 47 52 56 50 41 36 27 36 37 30 25 24 28 35 40 40 37 33 33 29 29 31 29 34 29 29 44 28 26
42 34 27 18 12 20 30 33 33 33 35 37 38 39 42 40 33 31 26 24 29 32 30 24 32 33 32 36 39 34 33 31 28 30 31 27 25 29 23 24 25 24 23
32 25 21 21 27 36 44 47 44 40 34 31 30 32 31 26 24 23 25 27 26 30 29 22 30 28 32 31 34 37 35 28 25 26 20 18 16 22 21 21 26 25 13
18 12 15 30 40 48 50 49 41 32 27 24 22 23 24 26 26 25 24 25 27 29 27 23 27 26 29 23 30 41 38 29 21 29 28 27 25 24 23 22 22 23 8
8 11 19 32 43 45 44 37 27 21 18 16 20 21 23 27 27 26 25 24 26 23 20 22 23 23 28 28 23 29 32 33 29 27 27 30 30 31 29 27 22 19 16
9 16 28 40 45 40 30 24 20 17 16 19 23 24 25 27 30 27 26 26 25 24 21 21 23 21 28 26 18 22 24 25 26 28 29 32 33 33 27 28 24 20 12
14 27 41 47 39 26 22 16 13 17 19 22 23 27 26 30 34 28 26 26 24 23 24 23 22 22 27 22 19 20 20 22 23 26 30 34 36 31 29 31 26 18 8
18 32 40 33 26 19 13 15 17 18 21 21 24 27 30 32 33 26 26 27 26 22 19 23 21 23 25 23 17 23 25 21 20 26 37 37 39 30 24 22 27 17 4
29 37 34 26 18 14 16 22 22 19 20 18 24 30 33 31 30 27 26 28 26 23 21 23 22 24 24 22 22 20 15 22 19 30 44 50 43 31 19 16 19 11 3
33 35 28 11 14 17 18 18 19 19 19 18 24 28 31 36 33 29 29 30 28 22 14 18 27 21 25 27 25 20 11 17 17 33 46 49 42 26 15 16 16 8 7
34 25 12 15 16 18 19 18 20 20 21 22 29 28 29 34 34 31 33 28 24 25 20 21 29 24 29 24 22 21 16 19 15 37 40 39 35 27 20 18 14 14 19
24 7 12 15 15 17 20 22 22 24 25 29 28 23 26 30 34 32 36 33 22 22 20 21 31 31 30 24 17 18 16 11 22 29 27 25 27 25 21 17 20 35 33
10 7 13 14 16 21 25 28 31 33 32 31 26 20 21 27 31 31 32 29 26 26 28 25 23 29 28 16 13 13 15 17 21 24 16 22 27 24 23 19 22 32 36
10 11 10 12 20 25 26 25 32 31 33 28 16 15 17 23 25 28 29 28 23 20 21 20 24 27 24 13 9 16 14 15 20 18 22 24 26 27 23 22 25 32 39
13 15 20 22 18 22 23 25 20 31 27 25 23 19 19 21 23 28 30 28 19 25 25 30 25 23 22 16 11 8 14 16 18 24 23 24 27 28 27 32 34 32 38
18 21 23 26 25 25 25 22 23 27 26 26 20 19 18 21 27 29 29 30 30 30 30 32 23 17 20 20 19 16 14 19 25 25 27 28 32 30 31 32 28 30 23
19 20 24 24 22 24 21 32 31 30 23 22 21 19 22 26 28 26 26 26 25 32 33 32 26 22 19 20 16 16 20 30 27 29 32 38 37 35 34 34 30 26 25
24 25 21 19 22 17 22 34 34 27 20 17 19 22 26 20 23 24 25 20 24 26 38 39 38 35 29 26 27 34 36 33 30 34 41 42 41 38 35 33 32 31 33
Wind_Direction_500mb
180 182 181 171 169 173 178 195 216 195 243 244 241 248 284 308 319 323 324 329 330 336 334 336 335 331 326 325 323 321 320 317 318 320 327 327 330 334 319 318 310 310 308
180 184 179 174 171 178 187 239 193 270 236 236 258 286 312 312 313 319 321 324 323 334 332 332 331 326 321 321 321 323 323 324 331 329 330 326 328 326 316 331 333 330 317
177 177 171 172 179 186 217 222 200 242 245 266 299 308 306 308 313 310 312 315 321 325 324 327 323 319 318 319 321 321 324 326 325 328 323 323 318 328 329 332 332 322 326
163 167 175 183 179 234 284 215 235 249 283 310 312 322 316 309 306 303 305 311 318 320 326 324 318 317 318 319 319 318 320 320 322 325 323 316 319 317 314 329 320 324 331
164 170 178 197 211 318 271 279 259 287 309 318 314 307 299 294 291 295 302 308 312 319 322 316 313 315 318 319 318 318 319 314 311 317 318 317 322 326 324 320 316 317 331
155 147 136 221 281 265 264 245 271 273 268 282 289 284 278 278 283 291 301 311 318 324 317 313 314 317 324 324 319 322 321 319 311 303 303 309 326 328 329 318 313 322 324
124 130 136 216 253 228 203 215 235 261 280 286 288 278 279 287 296 308 317 317 323 322 320 318 318 323 329 331 329 330 331 328 319 311 300 304 316 320 320 315 310 314 325
139 135 130 129 128 133 163 231 271 294 304 294 279 285 294 298 311 319 317 317 326 336 335 331 334 337 337 344 346 342 339 335 328 325 310 308 315 317 303 316 309 321 316
123 122 118 105 90 82 3 340 321 310 299 294 298 298 300 308 314 319 320 322 332 345 1 359 7 5 348 343 347 339 330 324 319 320 326 320 320 304 303 303 304 300 307
114 109 105 92 51 357 343 335 324 314 307 306 308 313 317 320 328 333 338 341 341 346 349 351 350 353 349 350 352 355 351 346 342 327 317 318 311 303 309 314 321 314 306
93 57 28 14 360 353 349 346 343 340 335 330 334 334 340 354 2 356 346 341 342 345 346 347 348 355 350 356 1 4 356 347 355 359 4 351 331 325 336 330 337 343 323
110 97 343 351 358 355 346 341 339 339 343 349 358 18 12 1 355 348 344 337 340 341 342 343 347 351 353 357 3 7 9 15 2 4 2 1 5 358 346 338 339 351 13
83 34 359 351 350 348 343 342 348 0 10 34 11 2 3 360 357 353 351 351 344 344 344 336 341 349 355 0 0 7 11 19 18 16 21 9 5 1 0 354 344 346 2
35 350 350 351 346 338 340 348 4 34 29 15 5 6 8 10 2 353 352 350 357 355 343 335 341 345 346 351 360 352 5 7 12 11 10 1 6 8 359 349 345 347 347
355 350 342 336 334 339 350 14 49 24 18 12 20 18 11 5 356 355 357 359 353 350 351 351 347 346 340 340 350 328 338 352 349 350 352 350 349 349 353 356 353 350 13
345 337 332 330 338 355 39 21 10 7 10 17 18 13 10 3 5 10 10 4 359 355 2 355 353 349 348 343 325 316 318 327 327 345 350 347 342 340 341 349 349 345 56
341 336 327 331 349 34 19 8 5 0 6 26 24 13 6 1 359 356 353 358 1 2 2 355 346 340 344 342 336 333 317 316 317 337 342 344 345 341 339 340 354 351 54
333 329 329 8 25 23 16 16 15 20 26 21 3 1 5 1 355 356 356 353 351 356 349 340 336 345 347 348 350 353 337 317 326 331 340 343 348 354 356 356 6 22 100
330 335 25 24 22 12 14 14 16 18 5 352 351 356 344 349 356 358 353 341 334 339 330 323 326 325 322 330 343 350 335 299 314 333 342 352 3 16 22 23 28 88 114
340 17 35 20 12 12 5 357 356 348 339 343 341 335 331 347 348 344 342 337 328 329 323 319 316 309 307 302 333 340 343 334 322 335 354 9 18 21 36 52 99 115 121
20 46 18 19 16 356 349 351 344 330 324 321 325 320 331 343 341 339 345 345 328 319 318 323 332 326 304 323 319 338 341 338 348 347 23 28 32 53 65 84 118 119 125
64 35 23 11 354 352 8 359 354 3 352 349 324 324 336 336 338 350 352 348 347 352 360 357 349 6 10 2 353 357 7 21 16 37 47 36 39 73 78 86 105 118 119
38 22 4 356 4 346 352 344 342 348 357 1 343 334 331 331 345 352 356 358 5 12 15 10 9 13 25 38 43 42 49 37 42 66 49 51 69 80 88 102 104 107 109
27 16 20 3 5 1 353 358 349 347 346 358 357 1 354 352 343 352 355 5 14 14 9 1 12 27 60 61 58 69 51 48 82 74 64 71 83 90 102 107 106 115 109
26 9 353 346 343 349 2 358 351 351 354 1 9 11 354 347 356 356 357 2 18 22 14 27 39 56 65 49 68 76 75 91 93 81 85 89 91 89 88 84 81 83 93
8 5 359 3 3 5 358 3 0 360 5 0 7 356 350 2 3 10 5 34 39 41 68 34 37 55 62 73 84 96 97 95 90 89 89 86 85 83 79 77 82 82 87
Wind_Speed_850mb
63 74 68 59 49 39 25 4 6 12 10 9 9 9 11 21 32 44 50 46 50 58 63 73 80 77 68 63 58 57 56 55 52 58 59 59 34 39 26 49 52 37 36
59 64 59 53 44 34 23 7 7 5 8 9 11 11 22 33 41 52 55 51 53 59 64 75 82 72 65 57 50 48 50 48 45 46 48 32 45 22 55 38 30 33 42
63 64 59 49 42 25 11 8 1 11 12 9 13 24 29 37 52 57 50 49 51 57 66 74 70 62 54 48 44 40 38 41 40 35 31 23 16 56 44 38 33 39 44
49 56 53 48 27 7 13 17 10 16 12 17 25 33 43 50 47 45 46 45 50 61 69 66 63 58 49 46 40 36 39 37 40 38 29 34 38 39 34 28 45 42 40
49 40 30 15 17 7 18 19 19 15 19 23 28 36 41 42 43 42 43 49 56 62 66 62 60 50 47 44 40 41 39 37 37 33 33 37 35 33 48 42 64 63 45
34 26 15 4 12 19 33 22 18 18 22 24 32 39 40 40 40 43 49 54 56 60 61 55 45 43 43 41 42 40 36 35 32 31 29 28 31 37 37 43 60 46 47
31 20 10 5 14 18 23 24 23 23 29 35 37 38 36 37 42 48 52 49 54 57 50 46 41 36 37 37 38 34 32 31 30 27 28 28 27 31 35 38 48 40 53
22 26 30 30 24 17 10 8 14 18 24 27 30 34 38 44 48 51 46 45 44 42 43 39 29 27 28 27 31 32 30 30 30 28 27 29 27 33 35 34 40 42 35
42 43 35 25 15 4 7 16 28 37 36 37 41 44 47 52 56 50 41 36 27 36 37 30 25 24 28 35 40 40 37 33 33 29 29 31 29 34 29 29 44 28 26
42 34 27 18 12 20 30 33 33 33 35 37 38 39 42 40 33 31 26 24 29 32 30 24 32 33 32 36 39 34 33 31 28 30 31 27 25 29 23 24 25 24 23
32 25 21 21 27 36 44 47 44 40 34 31 30 32 31 26 24 23 25 27 26 30 29 22 30 28 32 31 34 37 35 28 25 26 20 18 16 22 21 21 26 25 13
18 12 15 30 40 48 50 49 41 32 27 24 22 23 24 26 26 25 24 25 27 29 27 23 27 26 29 23 30 41 38 29 21 29 28 27 25 24 23 22 22 23 8
8 11 19 32 43 45 44 37 27 21 18 16 20 21 23 27 27 26 25 24 26 23 20 22 23 23 28 28 23 29 32 33 29 27 27 30 30 31 29 27 22 19 16
9 16 28 40 45 40 30 24 20 17 16 19 23 24 25 27 30 27 26 26 25 24 21 21 23 21 28 26 18 22 24 25 26 28 29 32 33 33 27 28 24 20 12
14 27 41 47 39 26 22 16 13 17 19 22 23 27 26 30 34 28 26 26 24 23 24 23 22 22 27 22 19 20 20 22 23 26 30 34 36 31 29 31 26 18 8
18 32 40 33 26 19 13 15 17 18 21 21 24 27 30 32 33 26 26 27 26 22 19 23 21 23 25 23 17 23 25 21 20 26 37 37 39 30 24 22 27 17 4
29 37 34 26 18 14 16 22 22 19 20 18 24 30 33 31 30 27 26 28 26 23 21 23 22 24 24 22 22 20 15 22 19 30 44 50 43 31 19 16 19 11 3
33 35 28 11 14 17 18 18 19 19 19 18 24 28 31 36 33 29 29 30 28 22 14 18 27 21 25 27 25 20 11 17 17 33 46 49 42 26 15 16 16 8 7
34 25 12 15 16 18 19 18 20 20 21 22 29 28 29 34 34 31 33 28 24 25 20 21 29 24 29 24 22 21 16 19 15 37 40 39 35 27 20 18 14 14 19
24 7 12 15 15 17 20 22 22 24 25 29 28 23 26 30 34 32 36 33 22 22 20 21 31 31 30 24 17 18 16 11 22 29 27 25 27 25 21 17 20 35 33
10 7 13 14 16 21 25 28 31 33 32 31 26 20 21 27 31 31 32 29 26 26 28 25 23 29 28 16 13 13 15 17 21 24 16 22 27 24 23 19 22 32 36
10 11 10 12 20 25 26 25 32 31 33 28 16 15 17 23 25 28 29 28 23 20 21 20 24 27 24 13 9 16 14 15 20 18 22 24 26 27 23 22 25 32 39
13 15 20 22 18 22 23 25 20 31 27 25 23 19 19 21 23 28 30 28 19 25 25 30 25 23 22 16 11 8 14 16 18 24 23 24 27 28 27 32 34 32 38
18 21 23 26 25 25 25 22 23 27 26 26 20 19 18 21 27 29 29 30 30 30 30 32 23 17 20 20 19 16 14 19 25 25 27 28 32 30 31 32 28 30 23
19 20 24 24 22 24 21 32 31 30 23 22 21 19 22 26 28 26 26 26 25 32 33 32 26 22 19 20 16 16 20 30 27 29 32 38 37 35 34 34 30 26 25
24 25 21 19 22 17 22 34 34 27 20 17 19 22 26 20 23 24 25 20 24 26 38 39 38 35 29 26 27 34 36 33 30 34 41 42 41 38 35 33 32 31 33
Wind_Direction_850mb
180 182 181 171 169 173 178 195 216 195 243 244 241 248 284 308 319 323 324 329 330 336 334 336 335 331 326 325 323 321 320 317 318 320 327 327 330 334 319 318 310 310 308
180 184 179 174 171 178 187 239 193 270 236 236 258 286 312 312 313 319 321 324 323 334 332 332 331 326 321 321 321 323 323 324 331 329 330 326 328 326 316 331 333 330 317
177 177 171 172 179 186 217 222 200 242 245 266 299 308 306 308 313 310 312 315 321 325 324 327 323 319 318 319 321 321 324 326 325 328 323 323 318 328 329 332 332 322 326
163 167 175 183 179 234 284 215 235 249 283 310 312 322 316 309 306 303 305 311 318 320 326 324 318 317 318 319 319 318 320 320 322 325 323 316 319 317 314 329 320 324 331
164 170 178 197 211 318 271 279 259 287 309 318 314 307 299 294 291 295 302 308 312 319 322 316 313 315 318 319 318 318 319 314 311 317 318 317 322 326 324 320 316 317 331
155 147 136 221 281 265 264 245 271 273 268 282 289 284 278 278 283 291 301 311 318 324 317 313 314 317 324 324 319 322 321 319 311 303 303 309 326 328 329 318 313 322 324
124 130 136 216 253 228 203 215 235 261 280 286 288 278 279 287 296 308 317 317 323 322 320 318 318 323 329 331 329 330 331 328 319 311 300 304 316 320 320 315 310 314 325
139 135 130 129 128 133 163 231 271 294 304 294 279 285 294 298 311 319 317 317 326 336 335 331 334 337 337 344 346 342 339 335 328 325 310 308 315 317 303 316 309 321 316
123 122 118 105 90 82 3 340 321 310 299 294 298 298 300 308 314 319 320 322 332 345 1 359 7 5 348 343 347 339 330 324 319 320 326 320 320 304 303 303 304 300 307
114 109 105 92 51 357 343 335 324 314 307 306 308 313 317 320 328 333 338 341 341 346 349 351 350 353 349 350 352 355 351 346 342 327 317 318 311 303 309 314 321 314 306
93 57 28 14 360 353 349 346 343 340 335 330 334 334 340 354 2 356 346 341 342 345 346 347 348 355 350 356 1 4 356 347 355 359 4 351 331 325 336 330 337 343 323
110 97 343 351 358 355 346 341 339 339 343 349 358 18 12 1 355 348 344 337 340 341 342 343 347 351 353 357 3 7 9 15 2 4 2 1 5 358 346 338 339 351 13
83 34 359 351 350 348 343 342 348 0 10 34 11 2 3 360 357 353 351 351 344 344 344 336 341 349 355 0 0 7 11 19 18 16 21 9 5 1 0 354 344 346 2
35 350 350 351 346 338 340 348 4 34 29 15 5 6 8 10 2 353 352 350 357 355 343 335 341 345 346 351 360 352 5 7 12 11 10 1 6 8 359 349 345 347 347
355 350 342 336 334 339 350 14 49 24 18 12 20 18 11 5 356 355 357 359 353 350 351 351 347 346 340 340 350 328 338 352 349 350 352 350 349 349 353 356 353 350 13
345 337 332 330 338 355 39 21 10 7 10 17 18 13 10 3 5 10 10 4 359 355 2 355 353 349 348 343 325 316 318 327 327 345 350 347 342 340 341 349 349 345 56
341 336 327 331 349 34 19 8 5 0 6 26 24 13 6 1 359 356 353 358 1 2 2 355 346 340 344 342 336 333 317 316 317 337 342 344 345 341 339 340 354 351 54
333 329 329 8 25 23 16 16 15 20 26 21 3 1 5 1 355 356 356 353 351 356 349 340 336 345 347 348 350 353 337 317 326 331 340 343 348 354 356 356 6 22 100
330 335 25 24 22 12 14 14 16 18 5 352 351 356 344 349 356 358 353 341 334 339 330 323 326 325 322 330 343 350 335 299 314 333 342 352 3 16 22 23 28 88 114
340 17 35 20 12 12 5 357 356 348 339 343 341 335 331 347 348 344 342 337 328 329 323 319 316 309 307 302 333 340 343 334 322 335 354 9 18 21 36 52 99 115 121
20 46 18 19 16 356 349 351 344 330 324 321 325 320 331 343 341 339 345 345 328 319 318 323 332 326 304 323 319 338 341 338 348 347 23 28 32 53 65 84 118 119 125
64 35 23 11 354 352 8 359 354 3 352 349 324 324 336 336 338 350 352 348 347 352 360 357 349 6 10 2 353 357 7 21 16 37 47 36 39 73 78 86 105 118 119
38 22 4 356 4 346 352 344 342 348 357 1 343 334 331 331 345 352 356 358 5 12 15 10 9 13 25 38 43 42 49 37 42 66 49 51 69 80 88 102 104 107 109
27 16 20 3 5 1 353 358 349 347 346 358 357 1 354 352 343 352 355 5 14 14 9 1 12 27 60 61 58 69 51 48 82 74 64 71 83 90 102 107 106 115 109
26 9 353 346 343 349 2 358 351 351 354 1 9 11 354 347 356 356 357 2 18 22 14 27 39 56 65 49 68 76 75 91 93 81 85 89 91 89 88 84 81 83 93
8 5 359 3 3 5 358 3 0 360 5 0 7 356 350 2 3 10 5 34 39 41 68 34 37 55 62 73 84 96 97 95 90 89 89 86 85 83 79 77 82 82 87